| time (UTC) | temp C | wind direction | speed KPH | gust KPH | rain 1hr cm | rain 24hr cm | rain mn cm | humidity % | barometer mb |
| 20260504140706 | 5 | 238 | 4.8 | 8.0 | 0.23 | 0.76 | 0.76 | 93 | 1003.7 |
| 20260504140204 | 5 | 211 | 4.8 | 8.0 | 0.25 | 0.76 | 0.76 | 93 | 1003.6 |
| 20260504130704 | 5 | 153 | 0.0 | 0.0 | 0.43 | 0.51 | 0.51 | 91 | 1003.2 |
| 20260504130204 | 5 | 153 | 0.0 | 0.0 | 0.43 | 0.51 | 0.51 | 91 | 1003.3 |
| 20260504120204 | 5 | 153 | 3.2 | 4.8 | 0.08 | 0.08 | 0.08 | 87 | 1003.3 |
| 20260504110704 | 6 | 164 | 3.2 | 4.8 | 0.00 | 0.00 | 0.00 | 81 | 1003.6 |
| 20260504110204 | 5 | 165 | 4.8 | 11.3 | 0.00 | 0.00 | 0.00 | 80 | 1003.8 |
| 20260504100204 | 3 | 168 | 4.8 | 9.7 | 0.00 | 0.00 | 0.00 | 79 | 1004.1 |
| 20260504080703 | 3 | 177 | 4.8 | 4.8 | 0.00 | 0.00 | 0.00 | 75 | 1004.7 |
| 20260504080204 | 3 | 177 | 3.2 | 9.7 | 0.00 | 0.00 | 0.00 | 75 | 1004.7 |
| 20260504070205 | 3 | 177 | 4.8 | 8.0 | 0.00 | 0.00 | 0.00 | 73 | 1004.6 |
| 20260504050705 | 2 | 273 | 1.6 | 3.2 | 0.00 | 0.00 | 0.00 | 81 | 1005.0 |
| 20260504050205 | 2 | 273 | 0.0 | 0.0 | 0.00 | 0.00 | 0.00 | 80 | 1005.0 |
| 20260504044705 | 2 | 273 | 0.0 | 0.0 | 0.00 | 0.00 | 0.00 | 79 | 1005.2 |
| 20260504044205 | 2 | 273 | 0.0 | 1.6 | 0.00 | 0.00 | 0.00 | 79 | 1005.2 |
| 20260504042705 | 2 | 273 | 0.0 | 0.0 | 0.00 | 0.00 | 0.00 | 79 | 1005.4 |
| 20260504042205 | 2 | 273 | 0.0 | 1.6 | 0.00 | 0.00 | 0.00 | 79 | 1005.4 |
| 20260504040705 | 3 | 273 | 0.0 | 0.0 | 0.00 | 0.00 | 0.00 | 78 | 1005.4 |
| 20260504040205 | 3 | 273 | 0.0 | 3.2 | 0.00 | 0.00 | 0.00 | 77 | 1005.4 |
| 20260504034705 | 3 | 273 | 0.0 | 0.0 | 0.00 | 0.00 | 0.00 | 75 | 1005.4 |
| 20260504034205 | 3 | 273 | 0.0 | 0.0 | 0.00 | 0.00 | 0.00 | 74 | 1005.5 |
| 20260504032704 | 3 | 273 | 0.0 | 0.0 | 0.00 | 0.00 | 0.00 | 73 | 1005.5 |
| 20260504032205 | 4 | 273 | 0.0 | 0.0 | 0.00 | 0.00 | 0.00 | 73 | 1005.5 |
| 20260504030705 | 4 | 273 | 0.0 | 0.0 | 0.00 | 0.00 | 0.00 | 73 | 1005.5 |
| 20260504030205 | 4 | 273 | 0.0 | 0.0 | 0.00 | 0.00 | 0.00 | 73 | 1005.6 |
| 20260504024705 | 4 | 273 | 0.0 | 1.6 | 0.00 | 0.00 | 0.00 | 72 | 1005.6 |
| 20260504024205 | 4 | 273 | 0.0 | 0.0 | 0.00 | 0.00 | 0.00 | 72 | 1005.6 |
| 20260504022705 | 5 | 273 | 0.0 | 3.2 | 0.00 | 0.00 | 0.00 | 71 | 1005.7 |
| 20260504022205 | 5 | 273 | 1.6 | 3.2 | 0.00 | 0.00 | 0.00 | 72 | 1005.7 |
| 20260504020705 | 5 | 273 | 0.0 | 1.6 | 0.00 | 0.00 | 0.00 | 71 | 1005.8 |
| 20260504020205 | 5 | 273 | 0.0 | 1.6 | 0.00 | 0.00 | 0.00 | 70 | 1005.7 |
| 20260504014705 | 5 | 273 | 0.0 | 0.0 | 0.00 | 0.00 | 0.00 | 68 | 1005.8 |
| 20260504014205 | 5 | 273 | 0.0 | 1.6 | 0.00 | 0.00 | 0.00 | 68 | 1005.9 |
| 20260504012705 | 5 | 273 | 1.6 | 3.2 | 0.00 | 0.00 | 0.00 | 67 | 1005.9 |
| 20260504012205 | 5 | 273 | 1.6 | 4.8 | 0.00 | 0.00 | 0.00 | 67 | 1005.9 |
| 20260504010705 | 6 | 273 | 0.0 | 0.0 | 0.00 | 0.00 | 0.00 | 67 | 1005.8 |
| 20260504010204 | 6 | 273 | 0.0 | 0.0 | 0.00 | 0.00 | 0.00 | 65 | 1005.9 |
| 20260504004705 | 7 | 273 | 0.0 | 0.0 | 0.00 | 0.00 | 0.00 | 62 | 1005.7 |
| 20260504004204 | 7 | 273 | 0.0 | 3.2 | 0.00 | 0.00 | 0.00 | 61 | 1005.6 |
| 20260504002704 | 7 | 273 | 0.0 | 0.0 | 0.00 | 0.00 | 0.00 | 59 | 1005.5 |
| 20260504002204 | 7 | 273 | 0.0 | 3.2 | 0.00 | 0.00 | 0.00 | 58 | 1005.5 |
| 20260504000704 | 8 | 273 | 1.6 | 3.2 | 0.00 | 0.00 | 0.00 | 55 | 1005.4 |
| 20260504000205 | 8 | 273 | 0.0 | 3.2 | 0.00 | 0.00 | 0.00 | 54 | 1005.4 |
| 20260503234704 | 9 | 273 | 0.0 | 0.0 | 0.00 | 0.00 | 0.00 | 52 | 1005.5 |
| 20260503234204 | 9 | 273 | 0.0 | 1.6 | 0.00 | 0.00 | 0.00 | 52 | 1005.5 |
| 20260503232705 | 10 | 273 | 0.0 | 1.6 | 0.00 | 0.00 | 0.00 | 49 | 1005.5 |
| 20260503232204 | 10 | 273 | 0.0 | 3.2 | 0.00 | 0.00 | 0.00 | 49 | 1005.5 |
| 20260503230705 | 10 | 273 | 1.6 | 3.2 | 0.00 | 0.00 | 0.00 | 47 | 1005.5 |
| 20260503230204 | 10 | 273 | 1.6 | 3.2 | 0.00 | 0.00 | 0.00 | 47 | 1005.5 |
| 20260503224705 | 10 | 273 | 1.6 | 3.2 | 0.00 | 0.00 | 0.00 | 45 | 1005.6 |
| 20260503224204 | 10 | 273 | 3.2 | 4.8 | 0.00 | 0.00 | 0.00 | 46 | 1005.6 |
| 20260503222705 | 10 | 273 | 0.0 | 4.8 | 0.00 | 0.00 | 0.00 | 47 | 1005.6 |
| 20260503222205 | 10 | 273 | 3.2 | 8.0 | 0.00 | 0.00 | 0.00 | 47 | 1005.6 |
| 20260503220704 | 10 | 294 | 1.6 | 4.8 | 0.00 | 0.00 | 0.00 | 46 | 1005.7 |
| 20260503220205 | 10 | 320 | 3.2 | 9.7 | 0.00 | 0.00 | 0.00 | 48 | 1005.7 |
| 20260503214704 | 10 | 299 | 4.8 | 8.0 | 0.00 | 0.00 | 0.00 | 46 | 1005.7 |
| 20260503214205 | 10 | 277 | 1.6 | 8.0 | 0.00 | 0.00 | 0.00 | 48 | 1005.8 |
| 20260503212705 | 10 | 287 | 6.4 | 11.3 | 0.00 | 0.03 | 0.00 | 47 | 1005.8 |
| 20260503212204 | 10 | 292 | 4.8 | 11.3 | 0.00 | 0.03 | 0.00 | 46 | 1005.9 |
| 20260503210704 | 10 | 269 | 1.6 | 8.0 | 0.00 | 0.03 | 0.00 | 46 | 1005.9 |
| 20260503210204 | 10 | 264 | 4.8 | 11.3 | 0.00 | 0.03 | 0.00 | 46 | 1005.8 |
| 20260503204704 | 10 | 276 | 4.8 | 8.0 | 0.00 | 0.03 | 0.00 | 46 | 1005.9 |
| 20260503204204 | 10 | 298 | 4.8 | 14.5 | 0.00 | 0.03 | 0.00 | 45 | 1005.9 |
| 20260503202705 | 10 | 320 | 3.2 | 9.7 | 0.00 | 0.03 | 0.00 | 48 | 1005.9 |
| 20260503202205 | 10 | 311 | 4.8 | 12.9 | 0.00 | 0.03 | 0.00 | 48 | 1006.0 |
| 20260503200704 | 10 | 281 | 4.8 | 11.3 | 0.00 | 0.03 | 0.00 | 49 | 1006.1 |
| 20260503200205 | 10 | 293 | 6.4 | 19.3 | 0.00 | 0.03 | 0.00 | 49 | 1006.2 |
| 20260503194704 | 9 | 255 | 4.8 | 16.1 | 0.00 | 0.03 | 0.00 | 51 | 1006.2 |
| 20260503194205 | 9 | 276 | 3.2 | 14.5 | 0.00 | 0.03 | 0.00 | 52 | 1006.3 |
| 20260503192705 | 9 | 260 | 4.8 | 9.7 | 0.00 | 0.03 | 0.00 | 51 | 1006.5 |
| 20260503192204 | 9 | 276 | 6.4 | 19.3 | 0.00 | 0.03 | 0.00 | 50 | 1006.5 |
| 20260503190704 | 9 | 311 | 9.7 | 20.9 | 0.00 | 0.03 | 0.00 | 50 | 1006.7 |
| 20260503190205 | 9 | 273 | 4.8 | 16.1 | 0.00 | 0.03 | 0.00 | 50 | 1006.7 |
| 20260503184704 | 9 | 296 | 4.8 | 9.7 | 0.00 | 0.03 | 0.00 | 50 | 1006.8 |
| 20260503184204 | 9 | 290 | 8.0 | 20.9 | 0.00 | 0.03 | 0.00 | 50 | 1006.9 |
| 20260503182705 | 8 | 296 | 4.8 | 11.3 | 0.00 | 0.03 | 0.00 | 51 | 1006.9 |
| 20260503182205 | 8 | 282 | 6.4 | 24.1 | 0.00 | 0.03 | 0.00 | 50 | 1007.0 |
| 20260503180705 | 9 | 276 | 4.8 | 11.3 | 0.00 | 0.03 | 0.00 | 50 | 1007.0 |
| 20260503180205 | 9 | 288 | 9.7 | 24.1 | 0.00 | 0.03 | 0.00 | 49 | 1007.0 |
| 20260503174705 | 9 | 295 | 8.0 | 14.5 | 0.00 | 0.03 | 0.00 | 48 | 1007.1 |
| 20260503174204 | 10 | 292 | 14.5 | 27.4 | 0.00 | 0.05 | 0.00 | 47 | 1007.1 |
| 20260503172705 | 10 | 289 | 6.4 | 19.3 | 0.00 | 0.05 | 0.00 | 51 | 1007.2 |
| 20260503172204 | 10 | 285 | 8.0 | 27.4 | 0.00 | 0.05 | 0.00 | 49 | 1007.3 |
| 20260503170705 | 10 | 294 | 9.7 | 20.9 | 0.00 | 0.05 | 0.00 | 47 | 1007.5 |
| 20260503170205 | 10 | 301 | 9.7 | 24.1 | 0.00 | 0.05 | 0.00 | 49 | 1007.5 |
| 20260503160204 | 9 | 283 | 8.0 | 24.1 | 0.00 | 0.05 | 0.00 | 47 | 1008.2 |
| 20260503150704 | 10 | 286 | 9.7 | 19.3 | 0.00 | 0.05 | 0.00 | 50 | 1008.6 |
| 20260503150204 | 9 | 294 | 4.8 | 12.9 | 0.00 | 0.05 | 0.00 | 50 | 1008.6 |